This is the latest recevied weather packets stored in our database for station/object KO6MEX-13. If no packets are shown the sender has not sent any weather packets the latest 10 day(s).
| Time | Temp. | Humidity | Pressure | Rain* | Wind** | Luminosity | Snow |
|---|---|---|---|---|---|---|---|
| 1777781882 | 12.22° C | 86% | 1015.8 hPa | 0 mm | - | 0 W/m² | - |
| 1777781580 | 12.22° C | 86% | 1015.5 hPa | 0 mm | - | 0 W/m² | - |
| 1777781278 | 12.22° C | 87% | 1015.7 hPa | 0 mm | - | 0 W/m² | - |
| 1777780975 | 12.22° C | 86% | 1015.7 hPa | 0 mm | - | 0 W/m² | - |
| 1777780672 | 12.22° C | 85% | 1015.6 hPa | 0 mm | - | 0 W/m² | - |
| 1777780369 | 12.22° C | 85% | 1015.5 hPa | 0 mm | - | 0 W/m² | - |
| 1777780066 | 12.78° C | 84% | 1015.5 hPa | 0 mm | - | 0 W/m² | - |
| 1777779763 | 12.78° C | 84% | 1015.5 hPa | 0 mm | - | 0 W/m² | - |
| 1777779461 | 12.78° C | 83% | 1015.3 hPa | 0 mm | - | 0 W/m² | - |
| 1777779158 | 12.78° C | 83% | 1015.4 hPa | 0 mm | - | 0 W/m² | - |
| 1777778856 | 12.78° C | 83% | 1015.5 hPa | 0 mm | - | 0 W/m² | - |
| 1777778555 | 12.78° C | 83% | 1015.5 hPa | 0 mm | - | 0 W/m² | - |
| 1777778251 | 12.78° C | 84% | 1015.3 hPa | 0 mm | - | 0 W/m² | - |
| 1777777949 | 13.33° C | 84% | 1015.7 hPa | 0 mm | - | 0 W/m² | - |
| 1777777645 | 13.33° C | 83% | 1015.2 hPa | 0 mm | - | 0 W/m² | - |
| 1777777342 | 13.33° C | 82% | 1015.3 hPa | 0 mm | - | 0 W/m² | - |
| 1777777039 | 13.89° C | 81% | 1015.1 hPa | 0 mm | - | 0 W/m² | - |
| 1777776737 | 13.89° C | 81% | 1014.9 hPa | 0 mm | - | 0 W/m² | - |
| 1777776433 | 13.89° C | 81% | 1015.1 hPa | 0 mm | - | 1 W/m² | - |
| 1777776131 | 13.89° C | 80% | 1014.8 hPa | 0 mm | - | 4 W/m² | - |
| 1777775827 | 13.89° C | 80% | 1014.6 hPa | 0 mm | - | 6 W/m² | - |
| 1777775524 | 14.44° C | 79% | 1014.6 hPa | 0 mm | - | 9 W/m² | - |
| 1777775220 | 14.44° C | 78% | 1014.9 hPa | 0 mm | - | 12 W/m² | - |
| 1777774919 | 14.44° C | 78% | 1015.1 hPa | 0 mm | - | 18 W/m² | - |
| 1777774617 | 14.44° C | 77% | 1014.8 hPa | 0 mm | - | 22 W/m² | - |
* Rain latest hour (hover to see other rain measurements)
** Current wind speed in m/s (hover to see current wind gust speed)